Regional Weather Roundup
Issued by NWS Sioux Falls, SD

Home | Current Version | Previous Version | Text Only | Print | Product List | Glossary On
Versions: 1 2 3 4 5 6 7 8 9 10 11 12 13 14 15 16 17 18 19 20 21 22 23 24 25 26 27 28 29 30 31 32 33 34 35 36 37 38 39 40 41 42 43 44 45 46 47 48 49 50
000
ASUS43 KFSD 011410
RWRFSD

WEATHER ROUNDUP FOR SE SOUTH DAKOTA/SW MINNESOTA/NW IOWA
NATIONAL WEATHER SERVICE SIOUX FALLS SD
900 AM CDT WED OCT 01 2014

NOTE: "FAIR" INDICATES FEW OR NO CLOUDS BELOW 12,000 FEET WITH NO
SIGNIFICANT WEATHER AND OR OBSTRUCTIONS TO VISIBILITY.


SDZ038>040-050-052>070-011500-
SOUTHEAST SOUTH DAKOTA

CITY           SKY/WX    TMP DP  RH WIND       PRES   REMARKS
CHAMBERLAIN    PTSUNNY   53  49  86 W5        29.76R
HURON          CLOUDY    61  60  97 SW5       29.72R FOG
MADISON        PTSUNNY   61  61 100 S5        29.74S FOG
MITCHELL       CLOUDY    62  61  96 SW3       29.73R
SIOUX FALLS    CLOUDY    64  61  90 S7        29.74R
WINNER         FAIR      59  49  69 W12       29.77R
YANKTON        PTSUNNY   64  59  82 SE9       29.72F
$$

MNZ071-072-080-081-089-090-097-098-011500-
SOUTHWEST MINNESOTA

CITY           SKY/WX    TMP DP  RH WIND       PRES   REMARKS
FAIRMONT       CLOUDY    54  48  82 SE9       29.78R
JACKSON        CLOUDY    55  54  94 E7        29.79R FOG
LUVERNE        CLOUDY    61  57  88 SE6       29.75F FOG
MARSHALL       CLOUDY    61  55  82 SE10      29.74S
MONTEVIDEO     DRIZZLE   59  59 100 S8        29.75S
PIPESTONE      PTSUNNY   63  59  88 SW8       29.74F
REDWOOD FALLS  CLOUDY    58  55  90 SE13      29.77S
TRACY          CLOUDY    60  57  92 S9        29.76F
WINDOM         CLOUDY    55  55 100 SE7       29.77F FOG
WORTHINGTON    CLOUDY    57  55  94 CALM      29.77S
$$

IAZ001>003-012>014-020>022-031-032-NEZ013-014-SDZ071-011500-
NORTHWEST IOWA

CITY           SKY/WX    TMP DP  RH WIND       PRES   REMARKS
CHEROKEE       DRIZZLE   60  60 100 CALM      29.76S
DENISON        PTSUNNY   61  61 100 SW6       29.74R
ESTHERVILLE    CLOUDY    54  53  97 SE9       29.78R
LE MARS        CLOUDY    57  57 100 CALM      29.76S FOG
ORANGE CITY    CLOUDY    61  59  94 CALM      29.76R FOG
SHELDON        CLOUDY    59  59 100 CALM      29.75R FOG
SIOUX CITY     MOSUNNY   63  61  93 CALM      29.76R FOG
SPENCER        CLOUDY    58  55  90 SE6       29.78R
STORM LAKE     FOG       57  57 100 SE6       29.77R VSB 1/4
$$

ABBREVIATIONS USED IN REMARKS
   TC - TEMPERATURE IN CELSIUS
  WCI - WIND CHILL INDEX
   HX - HEAT INDEX
  VSB - VISIBILITY




USA.gov is the U.S. government's official web portal to all federal, state and local government web resources and services.